Weather History for KLNP - March, 2011

Change the Weather History Date:

Wednesday, March 9, 2011

  Actual Average Record
Temperature  
Mean Temperature 46 °F -  
Max Temperature 50 °F 47 °F 69 °F (2006)
Min Temperature 42 °F 29 °F 10 °F (2008)
Degree Days  
Heating Degree Days 19    
Moisture  
Dew Point 41 °F    
Average Humidity 83    
Maximum Humidity 100    
Minimum Humidity 43    
Precipitation  
Precipitation 0.00 in - - ()
Sea Level Pressure  
Sea Level Pressure 30.04 in    
Wind  
Wind Speed 14 mph (SSE)    
Max Wind Speed 21 mph    
Max Gust Speed 34 mph    
Visibility 8 miles    
Events      
Averages and records for this station are not official NWS values.
T = Trace of Precipitation, MM = Missing Value Source: NWS Daily Summary

Daily Weather History Graph

Daily Weather History Graph

Search for Another Location

Airport or City:

Trip Planner

Search our weather history database for the weather conditions in past years. The results will help you decide how hot, cold, wet, or windy it might be!

Date:

Astronomy

Mar. 09, 2011 Rise Set
Actual Time 6:50 AM EST 6:31 PM EST
Civil Twilight 6:24 AM EST 6:57 PM EST
Nautical Twilight 5:54 AM EST 7:27 PM EST
Astronomical Twilight 5:24 AM EST 7:57 PM EST
Moon 8:49 AM EST (3/9) 11:18 PM EST (3/9)
Length of Visible Light 12h 33m
Length of Day
11h 41m
Waxing Crescent, 20% of the Moon is Illuminated
Mar 9
Waxing Crescent
Mar 12
First Quarter
Mar 19
Full
Mar 26
Last Quarter
Apr 3
New

Hourly Weather History & Observations

Time (EST) Temp. Windchill Dew Point Humidity Pressure Visibility Wind Dir Wind Speed Gust Speed Precip Events Conditions
12:18 AM 44.6 °F 38.1 °F 23.0 °F 43% 30.14 in 10.0 mi SSE 13.8 mph 23.0 mph N/A   Mostly Cloudy
12:58 AM 44.6 °F 38.1 °F 24.8 °F 46% 30.13 in 10.0 mi SSE 13.8 mph 21.9 mph N/A   Overcast
1:18 AM 44.6 °F 37.8 °F 24.8 °F 46% 30.14 in 10.0 mi South 15.0 mph 20.7 mph N/A   Overcast
1:38 AM 44.6 °F 37.8 °F 24.8 °F 46% 30.13 in 10.0 mi SSE 15.0 mph 21.9 mph N/A   Overcast
1:58 AM 44.6 °F 38.1 °F 26.6 °F 49% 30.12 in 10.0 mi SSE 13.8 mph 23.0 mph N/A   Scattered Clouds
2:18 AM 46.4 °F 40.7 °F 26.6 °F 46% 30.11 in 10.0 mi SSE 12.7 mph 21.9 mph N/A   Scattered Clouds
2:38 AM 46.4 °F 39.5 °F 28.4 °F 50% 30.10 in 10.0 mi SSE 17.3 mph 32.2 mph N/A   Scattered Clouds
2:58 AM 46.4 °F 38.7 °F 28.4 °F 50% 30.10 in 10.0 mi SSE 20.7 mph 26.5 mph N/A   Mostly Cloudy
3:38 AM 42.8 °F 35.1 °F 35.6 °F 76% 30.10 in 10.0 mi SSE 16.1 mph 27.6 mph N/A   Overcast
3:58 AM 42.8 °F 35.1 °F 35.6 °F 76% 30.10 in 7.0 mi SSE 16.1 mph 25.3 mph N/A   Overcast
4:18 AM 42.8 °F 35.1 °F 37.4 °F 81% 30.09 in 5.0 mi SSE 16.1 mph 26.5 mph N/A   Overcast
4:38 AM 42.8 °F 35.8 °F 37.4 °F 81% 30.09 in 7.0 mi SSE 13.8 mph 21.9 mph N/A   Overcast
4:58 AM 42.8 °F 36.2 °F 37.4 °F 81% 30.09 in 10.0 mi SSE 12.7 mph 19.6 mph N/A   Overcast
5:18 AM 42.8 °F 35.8 °F 39.2 °F 87% 30.08 in 10.0 mi SSE 13.8 mph 21.9 mph N/A   Overcast
5:38 AM 42.8 °F 34.8 °F 39.2 °F 87% 30.07 in 10.0 mi SSE 17.3 mph 25.3 mph N/A   Overcast
5:58 AM 42.8 °F 35.8 °F 39.2 °F 87% 30.08 in 10.0 mi SSE 13.8 mph 24.2 mph N/A   Overcast
6:18 AM 44.6 °F 37.8 °F 39.2 °F 81% 30.09 in 10.0 mi SSE 15.0 mph 23.0 mph N/A   Overcast
6:38 AM 42.8 °F 35.4 °F 39.2 °F 87% 30.09 in 7.0 mi SSE 15.0 mph 24.2 mph N/A   Overcast
6:58 AM 42.8 °F 34.8 °F 41.0 °F 93% 30.08 in 7.0 mi SSE 17.3 mph 25.3 mph N/A   Overcast
7:18 AM 44.6 °F 37.4 °F 42.8 °F 93% 30.08 in 7.0 mi SSE 16.1 mph 25.3 mph N/A   Overcast
7:38 AM 44.6 °F 37.4 °F 42.8 °F 93% 30.08 in 7.0 mi SSE 16.1 mph 28.8 mph N/A   Overcast
8:18 AM 44.6 °F 38.4 °F 42.8 °F 93% 30.09 in 4.0 mi SSE 12.7 mph 21.9 mph N/A   Overcast
8:38 AM 44.6 °F 37.8 °F 42.8 °F 93% 30.09 in 10.0 mi SSE 15.0 mph 26.5 mph N/A   Overcast
8:58 AM 44.6 °F 38.8 °F 42.8 °F 93% 30.08 in 5.0 mi SSE 11.5 mph 23.0 mph N/A   Overcast
9:18 AM 44.6 °F 38.4 °F 42.8 °F 93% 30.09 in 4.0 mi SSE 12.7 mph 24.2 mph N/A   Overcast
9:38 AM 44.6 °F 39.2 °F 44.6 °F 100% 30.09 in 7.0 mi SSE 10.4 mph 19.6 mph N/A   Overcast
9:58 AM 44.6 °F 38.8 °F 44.6 °F 100% 30.08 in 3.0 mi SSE 11.5 mph 19.6 mph N/A   Overcast
10:18 AM 44.6 °F 39.2 °F 44.6 °F 100% 30.08 in 3.0 mi SSE 10.4 mph - N/A   Overcast
10:38 AM 44.6 °F 38.4 °F 44.6 °F 100% 30.08 in 2.5 mi SSE 12.7 mph 21.9 mph N/A   Overcast
10:58 AM 44.6 °F 37.4 °F 44.6 °F 100% 30.08 in 2.5 mi SSE 16.1 mph - N/A   Overcast
11:18 AM 44.6 °F 38.4 °F 44.6 °F 100% 30.09 in 1.8 mi SSE 12.7 mph 20.7 mph N/A   Overcast
11:38 AM 46.4 °F 40.7 °F 44.6 °F 93% 30.09 in 2.0 mi SSE 12.7 mph 20.7 mph N/A   Overcast
11:58 AM 44.6 °F 38.4 °F 44.6 °F 100% 30.07 in 1.2 mi SSE 12.7 mph 20.7 mph N/A   Overcast
12:18 PM 44.6 °F 38.4 °F 44.6 °F 100% 30.06 in 1.8 mi SSE 12.7 mph 20.7 mph N/A   Overcast
12:38 PM 44.6 °F 37.4 °F 44.6 °F 100% 30.04 in 2.5 mi SSE 16.1 mph 26.5 mph N/A   Overcast
12:58 PM 46.4 °F 41.9 °F 44.6 °F 93% 30.02 in 2.0 mi SSE 9.2 mph 21.9 mph N/A   Overcast
1:18 PM 46.4 °F 39.8 °F 44.6 °F 93% 29.98 in 4.0 mi SSE 16.1 mph 25.3 mph N/A   Overcast
1:38 PM 44.6 °F 36.4 °F 44.6 °F 100% 29.93 in 3.0 mi SSE 20.7 mph 31.1 mph N/A   Overcast
1:58 PM 46.4 °F 39.5 °F 44.6 °F 93% 29.91 in 7.0 mi SSE 17.3 mph 34.5 mph N/A   Overcast
2:18 PM 46.4 °F 39.8 °F 44.6 °F 93% 29.94 in 10.0 mi SSE 16.1 mph 31.1 mph N/A   Overcast
2:38 PM 48.2 °F - 44.6 °F 87% 29.95 in 10.0 mi SSE 20.7 mph 32.2 mph N/A   Mostly Cloudy
2:58 PM 48.2 °F - 44.6 °F 87% 29.95 in 10.0 mi SSE 19.6 mph 31.1 mph N/A   Mostly Cloudy
3:18 PM 48.2 °F - 44.6 °F 87% 29.95 in 10.0 mi SSE 19.6 mph 28.8 mph N/A   Overcast
3:38 PM 48.2 °F - 44.6 °F 87% 29.95 in 10.0 mi SSE 20.7 mph 27.6 mph N/A   Mostly Cloudy
3:58 PM 48.2 °F - 44.6 °F 87% 29.95 in 10.0 mi SSE 13.8 mph 23.0 mph N/A   Mostly Cloudy
4:18 PM 48.2 °F - 44.6 °F 87% 29.96 in 10.0 mi South 11.5 mph 18.4 mph N/A   Overcast
4:38 PM 48.2 °F - 44.6 °F 87% 29.96 in 10.0 mi South 9.2 mph - N/A   Overcast
4:58 PM 50.0 °F - 44.6 °F 82% 29.97 in 10.0 mi SSE 6.9 mph - N/A   Overcast
5:18 PM 50.0 °F - 44.6 °F 82% 29.97 in 10.0 mi South 8.1 mph - N/A   Overcast
5:38 PM 50.0 °F - 44.6 °F 82% 29.97 in 10.0 mi South 8.1 mph - N/A   Overcast
5:58 PM 50.0 °F - 44.6 °F 82% 29.96 in 10.0 mi South 10.4 mph - N/A   Overcast
6:18 PM 50.0 °F - 44.6 °F 82% 29.97 in 10.0 mi SSE 10.4 mph - N/A   Overcast
6:38 PM 50.0 °F - 44.6 °F 82% 29.98 in 10.0 mi South 6.9 mph - N/A   Overcast
6:58 PM 50.0 °F - 44.6 °F 82% 29.98 in 10.0 mi SSE 6.9 mph - N/A   Overcast
7:18 PM 48.2 °F - 44.6 °F 87% 29.97 in 10.0 mi South 9.2 mph - N/A   Overcast
7:38 PM 50.0 °F - 44.6 °F 82% 29.97 in 10.0 mi SSE 9.2 mph - N/A   Overcast
7:58 PM 50.0 °F - 44.6 °F 82% 29.97 in 10.0 mi SSE 9.2 mph - N/A   Overcast
8:18 PM 50.0 °F - 44.6 °F 82% 29.96 in 10.0 mi SSE 9.2 mph - N/A   Overcast
8:38 PM 48.2 °F - 44.6 °F 87% 29.96 in 7.0 mi South 4.6 mph - N/A   Overcast
9:18 PM 48.2 °F - 44.6 °F 87% 29.96 in 10.0 mi SSE 6.9 mph - N/A   Overcast
9:38 PM 50.0 °F - 44.6 °F 82% 29.96 in 10.0 mi SSE 8.1 mph - N/A   Overcast
9:58 PM 48.2 °F - 46.4 °F 93% 29.95 in 10.0 mi SSE 4.6 mph - N/A   Overcast
10:18 PM 48.2 °F - 46.4 °F 93% 29.95 in 10.0 mi SSE 5.8 mph - N/A   Overcast
10:38 PM 48.2 °F - 46.4 °F 93% 29.94 in 10.0 mi SSE 6.9 mph - N/A   Overcast
10:58 PM 48.2 °F - 46.4 °F 93% 29.94 in 10.0 mi SSE 6.9 mph - N/A   Overcast
11:18 PM 48.2 °F - 46.4 °F 93% 29.94 in 10.0 mi SSE 5.8 mph - N/A   Overcast
11:38 PM 48.2 °F - 46.4 °F 93% 29.93 in 10.0 mi SSE 6.9 mph - N/A   Mostly Cloudy
11:58 PM 48.2 °F - 46.4 °F 93% 29.92 in 10.0 mi SSE 5.8 mph - N/A   Overcast